Regional Weather Roundup
Issued by NWS New Orleans/Baton Rouge, LA

Home | Current Version | Previous Version | Text Only | Print | Product List | Glossary Off
Versions: 1 2 3 4 5 6 7 8 9 10 11 12 13 14 15 16 17 18 19 20 21 22 23 24 25 26 27 28 29 30 31 32 33 34 35 36 37 38 39 40 41 42 43 44 45 46 47 48 49 50

837
ASUS44 KLIX 230910
RWRLIX
NEW ORLEANS REGIONAL WEATHER ROUNDUP
NATIONAL WEATHER SERVICE NEW ORLEANS LA
400 AM CDT TUE SEP 23 2014

NOTE: "FAIR" INDICATES FEW OR NO CLOUDS BELOW 12,000 FEET WITH NO
      SIGNIFICANT WEATHER AND/OR OBSTRUCTIONS TO VISIBILITY.
      SKY/WX - SKY CONDITION AND SIGNIFICANT WEATHER.
      TMP - AIR TEMPERATURE.     DP    - DEWPOINT TEMPERATURE.
      RH  - RELATIVE HUMIDITY.   PRES  - PRESSURE.
      HI  - HEAT INDEX.          WCI   - WIND CHILL INDEX.

*  THESE STATIONS ARE NOT NWS OR FAA STATIONS AND ARE NOT UNDER
   NWS QUALITY CONTROL.

LAZ038-040-048-061>063-065>067-069-231000-
SOUTHEAST LOUISIANA

CITY           SKY/WX    TMP DP  RH WIND       PRES   REMARKS
N.O. AUDUBON     N/A     71  55  56 MISG        N/A
N.O. INTL ARPT CLEAR     72  56  57 NE16      30.05R
N.O. LAKEFRONT CLEAR     73  58  59 NE22      30.05S
N.O. DOWNTOWN*   N/A     72  52  49 NE6       30.05S
SLIDELL        CLEAR     62  54  74 N6        30.06S
BATON ROUGE    CLEAR     61  55  81 NE7       30.08S
BOOTHVILLE     MOCLDY    80  65  59 NE14      30.01S
BELLE CHASSE   CLEAR     69  55  60 NE9       30.04S
BOGALUSA*        N/A     60  54  80 NE5       30.09S
GALLIANO*      NOT AVBL
NEW ROADS*       N/A     64  54  69 NE7       30.08F
GONZALES*        N/A     62  59  87 N5        30.06S
HAMMOND*       CLEAR     63  52  67 N3        30.09S
HOUMA*         CLEAR     66  50  56 NE3       30.04R
PORT FOURCHON* MOSUNNY   77  66  69 NE15      30.04S

$$

MSZ070-080>082-231000-
SOUTHERN MISSISSIPPI

CITY           SKY/WX    TMP DP  RH WIND       PRES   REMARKS
MCCOMB         CLEAR     62  53  72 N7        30.10S
GULFPORT       CLEAR     64  53  67 N6        30.06R
BILOXI         CLEAR     64  55  71 NE8       30.06R
PASCAGOULA     CLEAR     56  54  93 N5        30.06S

$$

COASTAL OBSERVATIONS
LAKE AND NEARSHORE STATIONS

STATION/POSITION TIME  TEMP    WIND        PRES    WAVE
                       AIR SEA DIR/SP/G            HT/PER
                 (UTC) (F)     (DEG/KT/KT) (MB)    (FT/S)
PASCAGOULA       0900   66      20/  8/ 11 1017.0
WAVELAND YACHT   0900   68      40/ 13/ 16 1017.1
GRAND ISLE       0900   76 82   50/ 11/ 17 1016.6
SOUTHWEST PASS   0900   84 89   60/ 18/ 21 1015.8
NEW CANAL        0900   74 79   60/ 20/ 23 1017.5
SHELL BEACH      0900   74 76   40/ 21/ 23 1016.6

OFFSHORE STATIONS

STATION/POSITION TIME  TEMP    WIND        PRES    WAVE
                       AIR SEA DIR/SP/G            HT/PER
                 (UTC) (F)     (DEG/KT/KT) (MB)    (FT/S)
64 S DAUPHIN ISL 0809   80 83   60/ 19/ 23 1015.6    5/ 6

$$




USA.gov is the U.S. government's official web portal to all federal, state and local government web resources and services.